User: anonymous   Login
Location: Fort Frances
(48.6170°N, 93.4170°W)
Time: 14:55:32
(UTC-05:00)
Language:

CZ-2C R/B - Orbit

View from above orbital plane
View from above orbital plane
View from above satellite
View from above satellite

Ground track
Ground track

The orbit data is extracted from the following two-line orbital elements,

1 36089U 09061B   16207.95684126 +.00000026 +00000-0 +17849-4 0  9990
2 36089 098.0511 218.3241 0081410 331.3485 084.7478 14.49588139354354
Epoch (UTC): 25 July 2016 22:57:51
Eccentricity: 0.0081410
inclination: 98.0511°
perigee height: 669 km
apogee height: 785 km
right ascension of ascending node: 218.3241°
argument of perigee: 331.3485°
revolutions per day: 14.49588139
mean anomaly at epoch: 84.7478°
orbit number at epoch: 35435

The dashed part of the orbit path shows where the satellite is in the earth's shadow,  

DLR